Regional Weather Roundup
Issued by NWS

Home | Current Version | Previous Version | Graphics & Text | Print | Product List | Glossary On
Versions: 1 2 3 4 5 6 7 8 9 10 11 12 13 14 15 16 17 18 19 20 21 22 23 24 25 26 27 28 29 30 31 32 33 34 35 36 37 38 39 40 41 42 43 44 45 46 47 48 49 50
000
ASUS43 KTOP 281959
RWRKS

WEATHER ROUNDUP FOR KANSAS
NATIONAL WEATHER SERVICE GOODLAND KS
200 PM CST TUE FEB 28 2017

NOTE:  "FAIR" INDICATES FEW OR NO CLOUDS BELOW 12,000 FEET WITH NO
SIGNIFICANT WEATHER AND/OR OBSTRUCTIONS TO VISIBILITY.

KSZ001>006-013>018-027>032-041>047-282100-
NORTHWEST KANSAS

CITY           SKY/WX    TMP DP  RH WIND       PRES   REMARKS
GOODLAND       CLOUDY    42   7  23 N17       29.69F
HAYS           MOSUNNY   57  33  40 N9        29.63F
HILL CITY      PTSUNNY   52  29  41 N15G24    29.67F
RUSSELL        CLOUDY    55  34  45 VRB3      29.61F
$$

KSZ061>065-074>080-084>089-282100-
SOUTHWEST KANSAS

CITY           SKY/WX    TMP DP  RH WIND       PRES   REMARKS
DODGE CITY     SUNNY     59  25  27 VRB5      29.62F
ELKHART          N/A     57  27  31 N3          N/A
GARDEN CITY    SUNNY     58  25  28 NE10G17   29.60F
LIBERAL        MOSUNNY   61  28  29 NE13      29.59F
$$

KSZ066>073-081>083-090>101-282100-
SOUTHEAST KANSAS

CITY           SKY/WX    TMP DP  RH WIND       PRES   REMARKS
CHANUTE        CLOUDY    75  48  38 SW24G35   29.63F
COFFEYVILLE    CLOUDY    75  58  55 S22G31    29.66F
HUTCHINSON     CLOUDY    57  28  33 W7        29.61F
MEDICINE LODGE   N/A     64  31  28 S12       29.59F
NEWTON         CLOUDY    61  42  49 SW13      29.61F
PARSONS        CLOUDY    77  50  38 SW18G25   29.65F
WICHITA INTL   CLOUDY    66  45  46 SW15      29.60F
WICHITA JABRA  CLOUDY    66  44  45 SW15      29.60F
WINFIELD       PTSUNNY   74  45  35 SW18G32   29.61F
$$

KSZ007>012-019>026-033>040-048>060-102>105-282100-
NORTHEAST KANSAS

CITY           SKY/WX    TMP DP  RH WIND       PRES   REMARKS
CONCORDIA      CLOUDY    49  39  68 NW8       29.62F
EMPORIA        CLOUDY    72  44  36 SW24G30   29.58F
LAWRENCE       CLOUDY    71  41  33 SW16G29   29.59F
MANHATTAN      CLOUDY    59  34  39 W8G20     29.60F
OLATHE IND     CLOUDY    73  47  39 SW17G25   29.60F
OLATHE EXE     PTSUNNY   71  49  45 SW17G26   29.59F
SALINA         CLOUDY    56  31  38 NW9       29.63F
TOPEKA BILLARD CLOUDY    70  38  31 SW12      29.57F
TOPEKA FORBES  CLOUDY    71  37  28 SW18      29.59F
$$




USA.gov is the U.S. government's official web portal to all federal, state and local government web resources and services.